Time,TemperatureF,DewpointF,PressureIn,WindDirection,WindDirectionDegrees,WindSpeedMPH,WindSpeedGustMPH,Humidity,HourlyPrecipIn,Conditions,Clouds,dailyrainin,SolarRadiationWatts/m^2,SoftwareType,DateUTC
2013-05-26 00:00:00,63.0,61.0,-100.00,NNE,25,0.0,-999.0,94,-99.99,,,-99.99,0.000000,,2013-05-26 05:00:00,
2013-05-26 00:52:00,63.0,61.0,-100.00,NNE,25,0.0,-999.0,94,-99.99,,,-99.99,0.000000,,2013-05-26 05:52:00,
2013-05-26 03:00:00,60.0,59.0,-100.00,NNE,25,0.0,-999.0,97,-99.99,,,-99.99,0.010000,,2013-05-26 08:00:00,
2013-05-26 03:53:00,60.0,59.0,-100.00,NNE,25,0.0,-999.0,97,-99.99,,,-99.99,0.010000,,2013-05-26 08:53:00,
2013-05-26 04:00:00,59.0,59.0,-100.00,NNE,20,0.0,-999.0,97,-99.99,,,-99.99,0.000000,,2013-05-26 09:00:00,
2013-05-26 04:53:00,59.0,59.0,-100.00,NNE,20,0.0,-999.0,97,-99.99,,,-99.99,0.000000,,2013-05-26 09:53:00,
2013-05-26 05:00:00,60.0,59.0,-100.00,NNE,18,0.0,-999.0,98,-99.99,,,-99.99,0.010000,,2013-05-26 10:00:00,
2013-05-26 05:52:00,60.0,59.0,-100.00,NNE,18,0.0,-999.0,98,-99.99,,,-99.99,0.010000,,2013-05-26 10:52:00,
2013-05-26 06:00:00,60.0,59.0,-100.00,NNE,29,1.0,-999.0,98,-99.99,,,-99.99,0.370000,,2013-05-26 11:00:00,
2013-05-26 06:52:00,60.0,59.0,-100.00,NNE,29,1.0,-999.0,98,-99.99,,,-99.99,0.370000,,2013-05-26 11:52:00,
2013-05-26 07:00:00,62.0,62.0,-100.00,NNE,33,0.0,-999.0,98,-99.99,,,-99.99,27.860001,,2013-05-26 12:00:00,
2013-05-26 07:52:00,62.0,62.0,-100.00,NNE,33,0.0,-999.0,98,-99.99,,,-99.99,27.860001,,2013-05-26 12:52:00,
2013-05-26 08:00:00,72.0,66.0,-100.00,ENE,61,1.0,-999.0,82,-99.99,,,-99.99,217.259995,,2013-05-26 13:00:00,
2013-05-26 08:52:00,72.0,66.0,-100.00,ENE,61,1.0,-999.0,82,-99.99,,,-99.99,217.259995,,2013-05-26 13:52:00,
2013-05-26 09:00:00,80.0,67.0,-100.00,ENE,60,1.0,-999.0,65,-99.99,,,-99.99,440.899994,,2013-05-26 14:00:00,
2013-05-26 09:52:00,80.0,67.0,-100.00,ENE,60,1.0,-999.0,65,-99.99,,,-99.99,440.899994,,2013-05-26 14:52:00,
2013-05-26 10:00:00,82.0,65.0,-100.00,East,86,2.0,-999.0,56,-99.99,,,-99.99,618.919983,,2013-05-26 15:00:00,
2013-05-26 10:53:00,82.0,65.0,-100.00,East,86,2.0,-999.0,56,-99.99,,,-99.99,618.919983,,2013-05-26 15:53:00,
2013-05-26 11:00:00,82.0,61.0,-100.00,ESE,107,4.0,-999.0,49,-99.99,,,-99.99,687.799988,,2013-05-26 16:00:00,
2013-05-26 11:53:00,82.0,61.0,-100.00,ESE,107,4.0,-999.0,49,-99.99,,,-99.99,687.799988,,2013-05-26 16:53:00,
2013-05-26 12:00:00,84.0,61.0,-100.00,SE,142,4.0,-999.0,46,-99.99,,,-99.99,772.349976,,2013-05-26 17:00:00,
2013-05-26 12:52:00,84.0,61.0,-100.00,SE,142,4.0,-999.0,46,-99.99,,,-99.99,772.349976,,2013-05-26 17:52:00,
2013-05-26 13:00:00,84.0,61.0,-100.00,South,174,5.0,-999.0,45,-99.99,,,-99.99,885.400024,,2013-05-26 18:00:00,
2013-05-26 13:52:00,84.0,61.0,-100.00,South,174,5.0,-999.0,45,-99.99,,,-99.99,885.400024,,2013-05-26 18:52:00,
2013-05-26 14:00:00,82.0,57.0,-100.00,South,175,6.0,-999.0,43,-99.99,,,-99.99,877.799988,,2013-05-26 19:00:00,
2013-05-26 14:52:00,82.0,57.0,-100.00,South,175,6.0,-999.0,43,-99.99,,,-99.99,877.799988,,2013-05-26 19:52:00,
2013-05-26 15:00:00,83.0,57.0,-100.00,SSE,154,5.0,-999.0,42,-99.99,,,-99.99,629.090027,,2013-05-26 20:00:00,
2013-05-26 15:52:00,83.0,57.0,-100.00,SSE,154,5.0,-999.0,42,-99.99,,,-99.99,629.090027,,2013-05-26 20:52:00,
2013-05-26 16:00:00,82.0,60.0,-100.00,SSE,160,5.0,-999.0,48,-99.99,,,-99.99,599.349976,,2013-05-26 21:00:00,
2013-05-26 16:53:00,82.0,60.0,-100.00,SSE,160,5.0,-999.0,48,-99.99,,,-99.99,599.349976,,2013-05-26 21:53:00,
2013-05-26 17:00:00,82.0,64.0,-100.00,SSE,158,4.0,-999.0,55,-99.99,,,-99.99,404.609985,,2013-05-26 22:00:00,
2013-05-26 17:53:00,82.0,64.0,-100.00,SSE,158,4.0,-999.0,55,-99.99,,,-99.99,404.609985,,2013-05-26 22:53:00,
2013-05-26 18:00:00,79.0,62.0,-100.00,SSE,154,3.0,-999.0,57,-99.99,,,-99.99,221.539993,,2013-05-26 23:00:00,
2013-05-26 18:52:00,79.0,62.0,-100.00,SSE,154,3.0,-999.0,57,-99.99,,,-99.99,221.539993,,2013-05-26 23:52:00,
2013-05-26 19:00:00,77.0,64.0,-100.00,SE,142,2.0,-999.0,64,-99.99,,,-99.99,98.230003,,2013-05-27 00:00:00,
2013-05-26 19:52:00,77.0,64.0,-100.00,SE,142,2.0,-999.0,64,-99.99,,,-99.99,98.230003,,2013-05-27 00:52:00,
2013-05-26 20:00:00,75.0,66.0,-100.00,SE,135,1.0,-999.0,74,-99.99,,,-99.99,19.480000,,2013-05-27 01:00:00,
2013-05-26 20:52:00,75.0,66.0,-100.00,SE,135,1.0,-999.0,74,-99.99,,,-99.99,19.480000,,2013-05-27 01:52:00,
2013-05-26 21:00:00,72.0,67.0,-100.00,ENE,59,0.0,-999.0,85,-99.99,,,-99.99,0.000000,,2013-05-27 02:00:00,
2013-05-26 21:52:00,72.0,67.0,-100.00,ENE,59,0.0,-999.0,85,-99.99,,,-99.99,0.000000,,2013-05-27 02:52:00,
2013-05-26 22:00:00,71.0,67.0,-100.00,NE,40,1.0,-999.0,85,-99.99,,,-99.99,0.000000,,2013-05-27 03:00:00,
2013-05-26 22:53:00,71.0,67.0,-100.00,NE,40,1.0,-999.0,85,-99.99,,,-99.99,0.000000,,2013-05-27 03:53:00,
2013-05-26 23:00:00,71.0,68.0,-100.00,NE,37,1.0,-999.0,90,-99.99,,,-99.99,0.000000,,2013-05-27 04:00:00,
2013-05-26 23:52:00,71.0,68.0,-100.00,NE,37,1.0,-999.0,90,-99.99,,,-99.99,0.000000,,2013-05-27 04:52:00,